Regional Weather Roundup
Issued by NWS State College, PA

Home | Current Version | Previous Version | Text Only | Print | Product List | Glossary On
Versions: 1 2 3 4 5 6 7 8 9 10 11 12 13 14 15 16 17 18 19 20 21 22 23 24 25 26 27 28 29 30 31 32 33 34 35 36 37 38 39 40 41 42 43 44 45 46 47 48 49 50
000
ASUS41 KCTP 230410
RWRCTP

REGIONAL WEATHER ROUNDUP
NATIONAL WEATHER SERVICE STATE COLLEGE PA
1200 AM EDT SAT AUG 23 2014

Note: "fair" indicates few or no clouds below 12,000 feet with no
significant weather and/or obstructions to visibility.

* = STATION THAT DOES NOT REPORT PRECIPITATION /E.G. RAIN...SNOW...ETC/
    THUNDER OR FOG.

PAZ002>004-007>009-013>016-020>023-029>032-230500-
WESTERN PENNSYLVANIA

CITY           SKY/WX    TMP DP  RH WIND       PRES   REMARKS
ERIE           CLEAR     68  64  87 CALM      30.00S
MEADVILLE      PTCLDY    66  63  90 CALM      30.03R
FRANKLIN*      CLOUDY    66  64  94 N5        30.04S VSB 1
NEW CASTLE     NOT AVBL
BEAVER COUNTY  NOT AVBL
BUTLER*        PTCLDY    66  64  94 CALM      30.01F
PITTSBURGH INT CLOUDY    70  69  97 W3        30.00S
PITTSBURGH     MOCLDY    72  70  93 S3        29.99S FOG
INDIANA*       MOCLDY    70  68  94 CALM      30.04F FOG
LATROBE        PTCLDY    72  72 100 CALM      30.01R
WASHINGTON CO* CLOUDY    70  70 100 CALM      30.02R
$$

PAZ004>006-010>012-017>019-024>028-033>037-041-042-045-046-049>053-230500-
CENTRAL PENNSYLVANIA

CITY           SKY/WX    TMP DP  RH WIND       PRES   REMARKS
BRADFORD       CLEAR     64  62  93 CALM      30.04R
DUBOIS         PTCLDY    64  64 100 CALM      30.02S FOG
CLEARFIELD     FOG       66  66 100 CALM      30.02S VSB 1/4
JOHNSTOWN      CLOUDY    67  65  93 S5        30.05S
ALTOONA        CLOUDY    68  67  96 S3        30.03S FOG
STATE COLLEGE  CLOUDY    69  66  92 CALM      30.02S
WILLIAMSPORT   RAIN      71  66  84 E7        29.99S
SELINSGROVE    CLOUDY    71  68  90 SE3       30.01S
FT INDIANTOWN  CLOUDY    70  70 100 NE5       30.03S
CAPITAL CITY   MOCLDY    72  67  84 SE7       30.01S
HARRISBURG     CLOUDY    73  68  84 S7        30.01R
YORK           PTCLDY    69  66  90 SE6       30.02S
$$

PAZ038>040-043-044-047-048-054-055-060>062-067>071-230500-
EASTERN PENNSYLVANIA

CITY           SKY/WX    TMP DP  RH WIND       PRES   REMARKS
SCRANTON       CLOUDY    66  60  81 VRB3      30.05R
MOUNT POCONO   CLOUDY    61  59  93 E7        30.10R
ALLENTOWN      CLOUDY    69  60  73 E5        30.06R
QUAKERTOWN*    CLOUDY    68  61  77 MISG      30.07R
READING        CLOUDY    72  61  68 SE7       30.04R
LANCASTER      CLOUDY    70  63  78 SE8       30.04R
COATESVILLE    CLOUDY    68  68 100 SE7       30.05S
POTTSTOWN      CLOUDY    68  58  70 CALM      30.06S
BLUE BELL      CLOUDY    68  61  77 CALM      30.04S
DOYLESTOWN     CLOUDY    66  61  84 CALM      30.05S
WILLOW GROVE   NOT AVBL
NORTH PHILA    CLOUDY    70  61  73 E7        30.06S
PHILADELPHIA   CLOUDY    70  62  76 NE6       30.04S
$$


USA.gov is the U.S. government's official web portal to all federal, state and local government web resources and services.